Regional Weather Roundup
Issued by NWS Glasgow, MT

Home | Current Version | Previous Version | Text Only | Print | Product List | Glossary On
Versions: 1 2 3 4 5 6 7 8 9 10 11 12 13 14 15 16 17 18 19 20 21 22 23 24 25 26 27 28
000
ASUS45 KGGW 232115
RWRGGW
HOURLY WEATHER ROUNDUP FOR NORTHEAST MONTANA
NATIONAL WEATHER SERVICE GLASGOW MONTANA
300 PM MDT WED APR 23 2014

NOTE: "FAIR" INDICATES FEW OR NO CLOUDS BELOW 12,000 FEET WITH NO
SIGNIFICANT WEATHER AND/OR OBSTRUCTIONS TO VISISBILITY.

NORTHEAST MONTANA


CITY           SKY/WX    TMP DP  RH WIND       PRES   REMARKS
GLASGOW        PTSUNNY   58  25  28 W25G39    29.55R
PLENTYWOOD       N/A     43  40  89 W15         N/A
WOLF POINT     CLOUDY    59  27  29 W26G33    29.55F
JORDAN           N/A     57  19  22 W21G30    29.61S
WINNETT          N/A     57  18  21 W20G28      N/A
SIDNEY         CLOUDY    50  43  76 W14       29.57R
GLENDIVE       PTSUNNY   57  30  35 W23G31    29.59S
SCOBEY           N/A     47  36  65 W17       29.55

FORT PECK REPORTS


CITY           SKY/WX    TMP DP  RH WIND       PRES   REMARKS
FORT PECK        N/A     55  24  30 W29G38      N/A
THE PINES        N/A     56  22  26 SW15G28     N/A

SOUTHEAST MONTANA


CITY           SKY/WX    TMP DP  RH WIND       PRES   REMARKS
BILLINGS       MOSUNNY   55  16  21 W31G43    29.71S
MILES CITY     CLOUDY    56  37  49 W25G33    29.66S
BAKER          CLOUDY    51  33  50 NW26G40   29.62S
LIVINGSTON     MOSUNNY   49  22  34 W26G36    29.77R

CENTRAL MONTANA


CITY           SKY/WX    TMP DP  RH WIND       PRES   REMARKS
HAVRE          MOSUNNY   56  20  24 W25G37    29.56R
LEWISTOWN      PTSUNNY   50  20  30 W24G37    29.67R
GREAT FALLS    MOSUNNY   49  22  34 SW24G36   29.66S
CUT BANK       SUNNY     51  21  30 W33G48    29.59S
HELENA         PTSUNNY   42  31  64 SW7       29.76R
BUTTE          CLOUDY    40  22  48 W14G21    29.82R
BOZEMAN        PTSUNNY   46  21  37 SW21G30   29.80F

WESTERN MONTANA


CITY           SKY/WX    TMP DP  RH WIND       PRES   REMARKS
MISSOULA       PTSUNNY   50  27  40 W17G30    29.82F
KALISPELL      NOT AVBL

NORTH DAKOTA


CITY           SKY/WX    TMP DP  RH WIND       PRES   REMARKS
WILLISTON      LGT RAIN  47  43  86 W18G25    29.53R
DICKINSON      CLOUDY    48  37  65 W32G43    29.56R
MINOT          RAIN      46  43  89 E24G31    29.55S FOG
BISMARCK       CLOUDY    55  45  68 S14       29.56R

SOUTHERN SASKATCHEWAN


CITY           SKY/WX    TMP DP  RH WIND       PRES   REMARKS
REGINA         LGT RAIN  45  43  93 SE18G31   29.50S
MOOSE JAW      LGT RAIN  46  43  87 E6        29.48R
ESTEVAN        LGT RAIN  46  45  93 SE22G29   29.51S FOG
SWIFT CURRENT  PTSUNNY   50  41  71 W16G22    29.44R




USA.gov is the U.S. government's official web portal to all federal, state and local government web resources and services.